Location: Cueva Bermeja
(28.4959°N, 16.2163°W)
Time: 20:11:23
(UTC+00:00)

Daily predictions for brighter satellites

Satellite Brightness Start Highest point End
(mag) Time Altitude Azimuth Time Altitude Azimuth Time Altitude Azimuth
USA 32 4.0 18:54:07 10° S 18:59:16 65° E 19:04:26 10° N
H-2A ROCKET BODY 2.5 18:46:09 10° W 19:00:49 88° N 19:04:23 10° E
CZ-4 R/B 2.4 18:58:40 10° SE 19:01:56 25° ENE 19:05:18 10° NNE
SMAP 4.0 19:00:06 10° S 19:04:38 54° W 19:09:11 10° NNW
YAOGAN 6 2.8 19:02:40 10° SSE 19:06:16 52° ENE 19:09:52 10° N
Atlas Centaur 2 2.0 19:04:23 10° WSW 19:08:46 63° SSE 19:14:16 10° E
Cosmos 1953 Rocket 3.8 19:07:16 10° SSE 19:11:35 49° E 19:15:55 10° NNE
Cosmos 1300 3.8 19:10:24 10° NNW 19:14:04 49° W 19:17:45 10° SSW
Cosmos 1758 Rocket 3.8 19:12:11 10° S 19:16:29 74° W 19:20:47 10° N
NOAA 12 4.4 19:12:34 10° S 19:17:46 71° WSW 19:22:59 10° NNW
OAO 1 Rocket 4.5 19:12:56 10° WSW 19:18:17 82° NNW 19:22:57 14° ENE
COSMO-SKYMED 1 3.1 19:15:55 10° N 19:20:11 62° WNW 19:24:28 10° SSW
Mugunghwa Rocket 4.3 19:14:22 10° WSW 19:20:51 68° S 19:27:18 13° E
Envisat 3.4 19:16:34 10° S 19:21:36 69° W 19:26:40 10° NNW
Cosmos 2237 Rocket 2.4 19:16:28 10° N 19:21:54 49° ENE 19:27:18 10° SE
CSL-04 Rocket 4.2 19:17:06 10° SE 19:22:03 37° ENE 19:27:04 10° N
Cosmos 2366 rocket 4.0 19:17:54 10° S 19:23:55 59° E 19:30:02 10° NNE
Cosmos 2333 Rocket 3.6 19:22:21 10° NW 19:27:40 42° WSW 19:32:55 10° S
Cosmos 1455 2.8 19:25:43 10° NNE 19:29:11 33° E 19:32:35 10° SSE
Okean-O 3.2 19:26:04 10° S 19:30:26 61° W 19:34:49 10° NNW
Orbus 7S 3.2 19:28:59 10° W 19:33:41 64° S 19:35:24 20° ESE
Cosmos 1328 3.7 19:30:59 10° S 19:34:58 78° E 19:38:59 10° N
NOSS 0 Rocket 4.1 19:30:10 10° NNW 19:36:22 81° WSW 19:42:31 10° SSE
ADEOS Rocket 3.6 19:30:23 10° NNE 19:37:05 50° E 19:44:19 10° S
BREEZE-M DEB (TANK) 4.3 19:26:35 10° NW 19:42:17 68° NE 19:45:56 15° ESE
Cosmos 2082 4.1 19:37:34 10° SSW 19:43:07 66° WNW 19:48:43 10° NNE
SL-16 R/B 3.1 19:39:32 10° N 19:44:11 26° ENE 19:45:51 22° E
Cosmos 1269 Rocket 4.1 19:39:16 10° NNW 19:44:33 81° WSW 19:49:49 10° S
FUSE 4.4 19:40:34 10° WSW 19:45:46 52° S 19:49:01 22° ESE
CZ-4C R/B 3.4 19:42:57 10° NNW 19:50:46 74° WSW 19:59:12 10° SSE
Cosmos 2297 Rocket 4.2 19:48:19 10° WSW 19:52:59 27° WNW 19:57:42 10° N
Cosmos 1727 Rocket 4.0 19:54:18 10° N 20:00:19 53° E 20:06:19 10° SSE
FALCON 9 R/B 3.4 19:38:32 10° WSW 20:02:11 74° SSE 20:05:56 31° E
Cosmos 1980 4.3 19:58:51 10° NNW 20:04:26 60° WSW 20:09:59 10° S
Ariane Rocket 3.3 20:00:23 10° SE 20:05:03 39° ENE 20:09:44 10° N
Cosmos 1939 Rocket 2.7 20:01:13 10° S 20:05:05 85° WSW 20:09:01 10° NNW
Cosmos 2227 Rocket 4.4 20:01:10 10° WSW 20:05:34 23° WNW 20:09:58 10° NNW
NOAA 11 4.2 20:00:12 10° S 20:05:42 82° WSW 20:11:13 10° NNW
Cosmos 2263 Rocket 3.0 20:02:32 10° SSE 20:06:43 30° ESE 20:06:43 30° ESE
NOSS 3-2 (A) 4.0 20:11:37 10° S 20:15:38 31° SE 20:15:38 31° SE
YAOGAN 1 3.8 20:13:29 10° S 20:17:34 42° W 20:21:40 10° NNW
SWIFT 3.8 20:16:59 10° SW 20:20:31 26° S 20:20:50 26° SSE
Cosmos 1821 Rocket 3.9 20:26:13 10° S 20:32:36 85° E 20:37:47 16° N
USA 234 4.4 20:28:40 10° SSE 20:34:45 41° SW 20:40:51 10° WNW
CZ-4 R/B 4.4 20:34:25 10° SW 20:36:54 16° W 20:39:26 10° NW
Timation 1 Rocket 4.4 20:33:13 10° S 20:38:19 57° SE 20:38:19 57° SE
Cosmos 2251 Rocket 3.7 20:38:19 10° NNW 20:42:44 63° NNW 20:42:44 63° NNW
IUS-7 SRM-1 4.5 20:40:30 10° W 20:43:47 28° WSW 20:43:47 28° WSW
Cosmos 44 Rocket 4.1 20:46:33 10° SW 20:51:08 47° WNW 20:51:08 47° WNW
USA 238 DEB 3.4 20:46:50 10° SSW 20:53:22 83° SE 20:53:22 83° SE
USA 238 3.4 20:46:58 10° SSW 20:53:25 82° SE 20:53:25 82° SE
OAO 2 Rocket 4.3 20:50:55 10° WSW 20:54:12 42° SW 20:54:12 42° SW
Atlas Centaur 2 2.5 20:52:37 10° W 20:56:52 61° WNW 20:56:52 61° WNW
Mugunghwa Rocket 4.4 21:09:46 10° W 21:15:40 66° WSW 21:15:40 66° WSW
H-2A R/B 4.4 19:36:54 10° SW 21:26:57 50° S 21:28:11 48° SSE
SL-16 R/B 3.7 21:23:16 10° NW 21:27:59 32° W 21:27:59 32° W
